Weather History for Dyersburg, TN

Change the Weather History Date:

Friday, May 9, 2014

  Actual Average Record
Temperature  
Mean Temperature 70 °F -  
Max Temperature 75 °F 75 °F 89 °F (2004)
Min Temperature 64 °F 57 °F 53 °F (2008)
Cooling Degree Days 4    
Growing Degree Days 20 (Base 50)    
Moisture  
Dew Point 57 °F    
Average Humidity 62    
Maximum Humidity 73    
Minimum Humidity 50    
Precipitation  
Precipitation 0.36 in - - ()
Sea Level Pressure  
Sea Level Pressure 29.94 in    
Wind  
Wind Speed 8 mph (South)    
Max Wind Speed 21 mph    
Max Gust Speed 31 mph    
Visibility 10 miles    
Events Thunderstorm    
Averages and records for this station are not official NWS values.
T = Trace of Precipitation, MM = Missing Value Source: NWS Daily Summary

Daily Weather History Graph

Daily Weather History Graph

Search for Another Location

Airport:

Trip Planner

Search our weather history database for the weather conditions in past years. The results will help you decide how hot, cold, wet, or windy it might be!

Date:

Astronomy

May. 09, 2014 Rise Set
Actual Time 5:56 AM CDT 7:51 PM CDT
Civil Twilight 5:28 AM CDT 8:19 PM CDT
Nautical Twilight 4:54 AM CDT 8:53 PM CDT
Astronomical Twilight 4:18 AM CDT 9:30 PM CDT
Moon 2:58 PM CDT (5/9) 2:49 AM CDT (5/9)
Length of Visible Light 14h 50m
Length of Day
13h 54m
Waxing Gibbous, 74% of the Moon is Illuminated
May 9
Waxing Gibbous
May 14
Full
May 21
Last Quarter
May 28
New
Jun 5
First Quarter

Hourly Weather History & Observations

Time (CDT) Temp. Dew Point Humidity Pressure Visibility Wind Dir Wind Speed Gust Speed Precip Events Conditions
12:15 AM 73.4 °F 53.6 °F 50% 29.95 in 10.0 mi SSE 6.9 mph - N/A   Scattered Clouds
12:35 AM 73.4 °F 53.6 °F 50% 29.94 in 10.0 mi South 9.2 mph - N/A   Mostly Cloudy
12:55 AM 73.4 °F 55.4 °F 53% 29.93 in 10.0 mi South 8.1 mph - N/A   Overcast
1:15 AM 71.6 °F 55.4 °F 57% 29.93 in 10.0 mi South 4.6 mph - N/A   Overcast
1:35 AM 71.6 °F 55.4 °F 57% 29.92 in 10.0 mi SE 4.6 mph - N/A   Overcast
1:55 AM 71.6 °F 55.4 °F 57% 29.90 in 10.0 mi SE 5.8 mph - N/A   Overcast
2:15 AM 71.6 °F 55.4 °F 57% 29.90 in 10.0 mi SSE 6.9 mph - N/A   Overcast
2:35 AM 71.6 °F 55.4 °F 57% 29.90 in 10.0 mi South 6.9 mph - N/A   Overcast
2:55 AM 73.4 °F 55.4 °F 53% 29.89 in 10.0 mi South 8.1 mph - N/A   Overcast
3:15 AM 73.4 °F 55.4 °F 53% 29.89 in 10.0 mi South 10.4 mph 21.9 mph N/A   Overcast
3:35 AM 73.4 °F 55.4 °F 53% 29.89 in 10.0 mi South 10.4 mph 18.4 mph N/A   Overcast
4:15 AM 68.0 °F 55.4 °F 64% 29.92 in 9.0 mi SW 20.7 mph 31.1 mph 0.10 in   Mostly Cloudy
4:35 AM 64.4 °F 55.4 °F 73% 29.92 in 10.0 mi West 6.9 mph 17.3 mph 0.19 in   Mostly Cloudy
4:55 AM 64.4 °F 55.4 °F 73% 29.92 in 10.0 mi SSW 5.8 mph - 0.21 in   Overcast
5:15 AM 64.4 °F 55.4 °F 73% 29.91 in 8.0 mi SE 8.1 mph - 0.11 in   Overcast
5:35 AM 64.4 °F 55.4 °F 73% 29.91 in 10.0 mi South 5.8 mph - 0.13 in   Overcast
5:55 AM 64.4 °F 55.4 °F 73% 29.89 in 10.0 mi SE 9.2 mph - 0.14 in   Overcast
6:15 AM 64.4 °F 55.4 °F 73% 29.91 in 10.0 mi SE 3.5 mph - 0.01 in   Mostly Cloudy
6:35 AM 64.4 °F 55.4 °F 73% 29.93 in 10.0 mi SSW 3.5 mph - 0.01 in   Mostly Cloudy
6:55 AM 64.4 °F 55.4 °F 73% 29.95 in 10.0 mi WSW 3.5 mph - 0.01 in   Overcast
7:15 AM 64.4 °F 55.4 °F 73% 29.96 in 10.0 mi Calm Calm - N/A   Overcast
7:35 AM 64.4 °F 55.4 °F 73% 29.96 in 10.0 mi WSW 4.6 mph - N/A   Mostly Cloudy
7:55 AM 64.4 °F 55.4 °F 73% 29.96 in 10.0 mi Calm Calm - N/A   Mostly Cloudy
8:15 AM 64.4 °F 55.4 °F 73% 29.96 in 10.0 mi South 3.5 mph - N/A   Partly Cloudy
8:35 AM 68.0 °F 57.2 °F 68% 29.95 in 10.0 mi South 5.8 mph - N/A   Partly Cloudy
8:55 AM 68.0 °F 57.2 °F 68% 29.96 in 10.0 mi South 5.8 mph - N/A   Mostly Cloudy
9:15 AM 68.0 °F 57.2 °F 68% 29.96 in 10.0 mi SSW 6.9 mph - N/A   Overcast
9:35 AM 68.0 °F 57.2 °F 68% 29.97 in 10.0 mi SW 11.5 mph 18.4 mph N/A   Overcast
9:55 AM 69.8 °F 57.2 °F 64% 29.98 in 10.0 mi SSW 9.2 mph 19.6 mph N/A   Overcast
10:15 AM 69.8 °F 57.2 °F 64% 29.98 in 10.0 mi SW 13.8 mph 19.6 mph N/A   Overcast
10:35 AM 69.8 °F 57.2 °F 64% 29.98 in 10.0 mi WSW 13.8 mph 21.9 mph N/A   Overcast
10:55 AM 69.8 °F 57.2 °F 64% 29.98 in 10.0 mi WSW 13.8 mph 20.7 mph N/A   Overcast
11:15 AM 69.8 °F 57.2 °F 64% 29.98 in 10.0 mi SW 10.4 mph 18.4 mph N/A   Overcast
11:35 AM 69.8 °F 57.2 °F 64% 29.99 in 10.0 mi WSW 11.5 mph - N/A   Overcast
11:55 AM 71.6 °F 59.0 °F 64% 29.99 in 10.0 mi SW 9.2 mph - N/A   Overcast
12:15 PM 71.6 °F 59.0 °F 64% 29.99 in 10.0 mi SW 10.4 mph - N/A   Overcast
12:35 PM 71.6 °F 59.0 °F 64% 30.00 in 10.0 mi SW 9.2 mph - N/A   Overcast
12:55 PM 71.6 °F 59.0 °F 64% 29.98 in 10.0 mi SSW 5.8 mph - N/A   Overcast
1:15 PM 73.4 °F 59.0 °F 61% 29.98 in 10.0 mi SSW 9.2 mph - N/A   Mostly Cloudy
1:35 PM 73.4 °F 59.0 °F 61% 29.97 in 10.0 mi SW 12.7 mph 17.3 mph N/A   Overcast
1:55 PM 73.4 °F 59.0 °F 61% 29.96 in 10.0 mi SSW 6.9 mph - N/A   Overcast
2:15 PM 73.4 °F 59.0 °F 61% 29.96 in 10.0 mi South 6.9 mph - N/A   Overcast
2:35 PM 73.4 °F 59.0 °F 61% 29.95 in 10.0 mi SSW 9.2 mph - N/A   Overcast
2:55 PM 73.4 °F 59.0 °F 61% 29.95 in 10.0 mi South 11.5 mph 17.3 mph N/A   Overcast
3:15 PM 73.4 °F 59.0 °F 61% 29.93 in 10.0 mi South 9.2 mph - N/A   Overcast
3:35 PM 73.4 °F 59.0 °F 61% 29.93 in 10.0 mi South 8.1 mph - N/A   Overcast
3:55 PM 75.2 °F 60.8 °F 61% 29.92 in 10.0 mi SSW 6.9 mph 18.4 mph N/A   Overcast
4:15 PM 75.2 °F 60.8 °F 61% 29.92 in 10.0 mi SSW 6.9 mph - N/A   Overcast
4:35 PM 75.2 °F 60.8 °F 61% 29.91 in 10.0 mi South 9.2 mph 16.1 mph N/A   Overcast
4:55 PM 73.4 °F 59.0 °F 61% 29.92 in 10.0 mi South 9.2 mph 18.4 mph N/A   Overcast
5:15 PM 73.4 °F 57.2 °F 57% 29.92 in 10.0 mi South 8.1 mph 18.4 mph N/A   Overcast
5:35 PM 73.4 °F 57.2 °F 57% 29.91 in 10.0 mi South 9.2 mph - N/A   Overcast
5:55 PM 73.4 °F 57.2 °F 57% 29.91 in 10.0 mi South 6.9 mph 17.3 mph N/A   Mostly Cloudy
6:15 PM 71.6 °F 57.2 °F 60% 29.92 in 10.0 mi South 9.2 mph 18.4 mph N/A   Overcast
6:35 PM 71.6 °F 57.2 °F 60% 29.91 in 10.0 mi South 11.5 mph 17.3 mph N/A   Overcast
6:55 PM 71.6 °F 57.2 °F 60% 29.92 in 10.0 mi South 10.4 mph - N/A   Overcast
7:15 PM 71.6 °F 55.4 °F 57% 29.93 in 10.0 mi South 8.1 mph - N/A   Overcast
7:35 PM 71.6 °F 55.4 °F 57% 29.92 in 10.0 mi SSE 8.1 mph 18.4 mph N/A   Overcast
7:55 PM 71.6 °F 55.4 °F 57% 29.93 in 10.0 mi South 9.2 mph 16.1 mph N/A   Mostly Cloudy
8:15 PM 69.8 °F 55.4 °F 60% 29.93 in 10.0 mi South 8.1 mph - N/A   Overcast
8:35 PM 69.8 °F 55.4 °F 60% 29.93 in 10.0 mi South 10.4 mph 17.3 mph N/A   Overcast
8:55 PM 69.8 °F 55.4 °F 60% 29.94 in 10.0 mi South 9.2 mph 19.6 mph N/A Thunderstorm Overcast
9:15 PM 69.8 °F 55.4 °F 60% 29.94 in 10.0 mi South 9.2 mph - N/A Thunderstorm Overcast
9:35 PM 69.8 °F 55.4 °F 60% 29.95 in 10.0 mi SSE 9.2 mph - N/A   Overcast
9:55 PM 69.8 °F 55.4 °F 60% 29.95 in 10.0 mi South 11.5 mph 17.3 mph N/A   Overcast
10:15 PM 69.8 °F 55.4 °F 60% 29.95 in 10.0 mi South 9.2 mph - N/A   Mostly Cloudy
10:35 PM 69.8 °F 55.4 °F 60% 29.95 in 10.0 mi South 5.8 mph - N/A   Mostly Cloudy
10:55 PM 69.8 °F 55.4 °F 60% 29.95 in 10.0 mi South 8.1 mph - N/A   Overcast
11:15 PM 69.8 °F 55.4 °F 60% 29.95 in 10.0 mi South 6.9 mph - N/A   Overcast
11:35 PM 69.8 °F 55.4 °F 60% 29.95 in 10.0 mi South 11.5 mph - N/A   Overcast
11:55 PM 69.8 °F 55.4 °F 60% 29.95 in 10.0 mi South 9.2 mph - N/A   Overcast